Байрачки

Украина / Луганская область     48˚23′25″N   38˚35′53″E
темп.,
°C
ветер,
м/с
пор.,
м/с
влажн.,
%
обл.,
%
осадки,
мм/ч
давл.,
гПа
погр.,
м
6 декабря, вс
вс623:00−6˚в713500 0.0 1037375
02:00−7˚в713580 0.0 1037370
05:00−8˚в713630 0.0 1037376
08:00−8˚в813780 0.0 1037390
11:00−6˚в8126417 0.0 1037483
14:00−5˚в812608 0.0 1036577
17:00−7˚в814720 0.0 1037539
20:00−7˚в814730 0.0 1037529
7 декабря, пн
пн723:00−8˚в815740 0.0 1037497
02:00−8˚в815730 0.0 1037476
05:00−9˚в815710 0.0 1036488
08:00−8˚в916660 0.0 1036480
11:00−5˚в914550 0.0 1036535
14:00−4˚в814520 0.0 1035564
17:00−6˚в815640 0.0 1035481
20:00−7˚в814670 0.0 1035457
8 декабря, вт
вт823:00−8˚в814700 0.0 1034426
02:00−8˚в814720 0.0 1034424
05:00−8˚в814700 0.0 1033410
08:00−8˚в815660 0.0 1033410
11:00−4˚в813490 0.0 1032508
14:00−3˚в814450 0.0 1031551
17:00−5˚в915560 0.0 1031450
20:00−5˚в814620 0.0 1032424
9 декабря, ср
ср923:00−6˚в714620 0.0 1032414
02:00−6˚в814660 0.0 1032387
05:00−7˚в814710 0.0 1032381
08:00−7˚в713720 0.0 1032420
11:00−3˚вюв7126575 0.0 1032537
14:00−2˚в7116481 0.0 1031610
17:00−4˚в7136665 0.0 1031464
20:00−4˚вюв7127274 0.0 1032449
10 декабря, чт
чт1023:00−4˚вюв61176100 0.0 1032398
02:00−4˚в6118187 0.0 1032329
05:00−5˚вюв6118139 0.0 1032315
08:00−5˚вюв6118040 0.0 1032304
11:00−2˚вюв610682 0.0 1032386
14:00−1˚в610641 0.0 1031451
17:00−3˚в611702 0.0 1031356
20:00−3˚в6117037 0.0 1031382